Tracking 27112 objects as of 27-Mar-2023
HD Live streaming from Space Station
objects crossing your sky now

STARLINK-3736

Track STARLINK-3736 now!
10-day predictions
STARLINK-3736 is classified as:


NORAD ID: 52113
Int'l Code: 2022-029AB
Perigee: 546.0 km
Apogee: 547.7 km
Inclination: 53.2 °
Period: 95.4 minutes
Semi major axis: 6917 km
RCS: Unknown
Launch date: March 19, 2022
Source: United States (US)
Launch site: AIR FORCE EASTERN TEST RANGE (AFETR)
Your satellite tracking list
Your tracking list is empty




NASA's NSSDC Master Catalog

Two Line Element Set (TLE):
1 52113U 22029AB  23085.75593350  .00008032  00000-0  52207-3 0  9994
2 52113  53.2149 242.6443 0001235  54.0813 306.0293 15.08844306 57908
Source of the keplerian elements: AFSPC